When you browse on this site, cookies collect data to enhance your experience and personalize the content and advertising you see.
Visit our Privacy Policy to learn more. By continuing to use the site, you agree to this use of cookies and data.
  • In Spain
  • List of Countries
  • For 7 days
  • Water Temperature
  • Satellite Maps
  • Weather Map
  • Weather Widgets
  • user-avatar
    Login

    Hourly Weather Krestcy

    Today, 21 January, Monday

    Time Temperature Precipitation Wind Pressure Humidity
    00:00 -10°C° 0 mm 3 mps 742 mmHg 91%
    01:00 -10°C° 0 mm 3 mps 743 mmHg 91%
    02:00 -9°C° 0 mm 2 mps 743 mmHg 91%
    03:00 -10°C° 0 mm 2 mps 743 mmHg 92%
    04:00 -12°C° 0 mm 2 mps 743 mmHg 92%
    05:00 -13°C° 0 mm 2 mps 743 mmHg 93%
    06:00 -13°C° 0 mm 2 mps 743 mmHg 93%
    07:00 -14°C° 0 mm 2 mps 743 mmHg 94%
    08:00 -15°C° 0 mm 2 mps 743 mmHg 94%
    09:00 -14°C° 0 mm 2 mps 744 mmHg 93%
    10:00 -14°C° 0 mm 3 mps 744 mmHg 91%
    11:00 -13°C° 0 mm 3 mps 744 mmHg 90%
    12:00 -13°C° 0 mm 3 mps 744 mmHg 88%
    13:00 -13°C° 0 mm 3 mps 744 mmHg 87%
    14:00 -13°C° 0 mm 3 mps 745 mmHg 85%
    15:00 -14°C° 0 mm 3 mps 745 mmHg 87%
    16:00 -16°C° 0 mm 3 mps 745 mmHg 90%
    17:00 -16°C° 0 mm 2 mps 746 mmHg 92%
    18:00 -17°C° 0 mm 2 mps 746 mmHg 93%
    19:00 -18°C° 0 mm 2 mps 746 mmHg 94%
    20:00 -19°C° 0 mm 2 mps 747 mmHg 95%
    21:00 -19°C° 0 mm 2 mps 747 mmHg 95%
    22:00 -20°C° 0 mm 2 mps 747 mmHg 96%
    23:00 -21°C° 0 mm 2 mps 748 mmHg 96%

    Tomorrow, 22 January, Tuesday

    Time Temperature Precipitation Wind Pressure Humidity
    00:00 -21°C° 0 mm 2 mps 748 mmHg 96%
    01:00 -21°C° 0 mm 2 mps 748 mmHg 97%
    02:00 -23°C° 0 mm 2 mps 749 mmHg 97%
    03:00 -23°C° 0 mm 3 mps 749 mmHg 96%
    04:00 -23°C° 0 mm 3 mps 749 mmHg 96%
    05:00 -23°C° 0 mm 3 mps 749 mmHg 96%
    06:00 -21°C° 0 mm 2 mps 750 mmHg 96%
    07:00 -23°C° 0 mm 2 mps 750 mmHg 96%
    08:00 -23°C° 0 mm 2 mps 751 mmHg 96%
    09:00 -20°C° 0 mm 2 mps 751 mmHg 94%
    10:00 -19°C° 0 mm 2 mps 751 mmHg 93%
    11:00 -18°C° 0 mm 2 mps 751 mmHg 92%
    12:00 -17°C° 0 mm 2 mps 751 mmHg 92%
    13:00 -17°C° 0 mm 2 mps 751 mmHg 92%
    14:00 -16°C° 0 mm 2 mps 751 mmHg 92%
    15:00 -18°C° 0 mm 2 mps 752 mmHg 93%
    16:00 -19°C° 0 mm 2 mps 752 mmHg 94%
    17:00 -20°C° 0 mm 2 mps 752 mmHg 95%
    18:00 -21°C° 0 mm 2 mps 752 mmHg 95%
    19:00 -21°C° 0 mm 2 mps 752 mmHg 95%
    20:00 -21°C° 0 mm 2 mps 751 mmHg 95%
    21:00 -21°C° 0 mm 2 mps 751 mmHg 95%
    22:00 -21°C° 0 mm 2 mps 751 mmHg 95%
    23:00 -23°C° 0 mm 2 mps 751 mmHg 95%

    Day after tomorrow, 23 January, Wednesday

    Time Temperature Precipitation Wind Pressure Humidity
    00:00 -23°C° 0 mm 2 mps 751 mmHg 96%
    01:00 -23°C° 0 mm 2 mps 751 mmHg 97%
    02:00 -23°C° 0 mm 2 mps 751 mmHg 97%
    03:00 -21°C° 0 mm 2 mps 751 mmHg 97%
    04:00 -21°C° 0 mm 2 mps 751 mmHg 98%
    05:00 -20°C° 0 mm 2 mps 750 mmHg 98%
    06:00 -18°C° 0 mm 2 mps 750 mmHg 97%
    07:00 -18°C° 0 mm 3 mps 750 mmHg 96%
    08:00 -16°C° 0 mm 3 mps 750 mmHg 95%
    09:00 -15°C° 0 mm 3 mps 750 mmHg 94%
    10:00 -13°C° 0 mm 3 mps 750 mmHg 93%
    11:00 -12°C° 0 mm 4 mps 750 mmHg 92%
    12:00 -12°C° 0 mm 4 mps 750 mmHg 91%
    13:00 -10°C° 0 mm 3 mps 750 mmHg 91%
    14:00 -10°C° 0 mm 3 mps 749 mmHg 91%
    15:00 -12°C° 0 mm 3 mps 749 mmHg 91%
    16:00 -13°C° 0 mm 3 mps 749 mmHg 92%
    17:00 -13°C° 0 mm 3 mps 749 mmHg 93%
    18:00 -12°C° 0 mm 2 mps 749 mmHg 93%
    19:00 -13°C° 0 mm 2 mps 749 mmHg 94%
    20:00 -13°C° 0 mm 2 mps 749 mmHg 94%
    21:00 -14°C° 0 mm 2 mps 749 mmHg 95%
    22:00 -15°C° 0 mm 2 mps 749 mmHg 95%
    23:00 -16°C° 0 mm 2 mps 749 mmHg 96%

    24 January, Thursday

    Time Temperature Precipitation Wind Pressure Humidity
    00:00 -16°C° 0 mm 2 mps 749 mmHg 96%
    01:00 -17°C° 0 mm 2 mps 749 mmHg 97%
    02:00 -18°C° 0 mm 2 mps 749 mmHg 97%
    03:00 -18°C° 0 mm 2 mps 749 mmHg 97%
    04:00 -19°C° 0 mm 2 mps 748 mmHg 97%
    05:00 -19°C° 0 mm 2 mps 748 mmHg 96%
    06:00 -19°C° 0 mm 2 mps 748 mmHg 95%
    07:00 -18°C° 0 mm 2 mps 748 mmHg 93%
    08:00 -18°C° 0 mm 2 mps 749 mmHg 92%
    09:00 -17°C° 0 mm 2 mps 749 mmHg 92%
    10:00 -15°C° 0 mm 2 mps 749 mmHg 92%
    11:00 -14°C° 0 mm 2 mps 749 mmHg 93%
    12:00 -13°C° 0 mm 2 mps 750 mmHg 92%
    13:00 -13°C° 0 mm 3 mps 750 mmHg 92%
    14:00 -13°C° 0 mm 3 mps 750 mmHg 91%
    15:00 -13°C° 0 mm 2 mps 751 mmHg 92%
    16:00 -15°C° 0 mm 2 mps 751 mmHg 93%
    17:00 -16°C° 0 mm 2 mps 752 mmHg 95%
    18:00 -17°C° 0 mm 2 mps 752 mmHg 95%
    19:00 -19°C° 0 mm 2 mps 753 mmHg 96%
    20:00 -20°C° 0 mm 2 mps 753 mmHg 97%
    21:00 -19°C° 0 mm 1 mps 754 mmHg 96%
    22:00 -19°C° 0 mm 1 mps 754 mmHg 96%
    23:00 -20°C° 0 mm 1 mps 755 mmHg 96%

    25 January, Friday

    Time Temperature Precipitation Wind Pressure Humidity
    00:00 -20°C° 0 mm 1 mps 755 mmHg 95%
    01:00 -20°C° 0 mm 1 mps 755 mmHg 95%
    02:00 -21°C° 0 mm 1 mps 756 mmHg 95%
    03:00 -21°C° 0 mm 1 mps 756 mmHg 95%
    04:00 -21°C° 0 mm 1 mps 756 mmHg 95%
    05:00 -21°C° 0 mm 1 mps 756 mmHg 95%
    06:00 -21°C° 0 mm 0 mps 756 mmHg 95%
    07:00 -21°C° 0 mm 0 mps 756 mmHg 96%
    08:00 -22°C° 0 mm 0 mps 757 mmHg 96%
    09:00 -20°C° 0 mm 0 mps 757 mmHg 95%
    10:00 -18°C° 0 mm 0 mps 757 mmHg 93%
    11:00 -16°C° 0 mm 1 mps 757 mmHg 91%
    12:00 -16°C° 0 mm 1 mps 757 mmHg 92%
    13:00 -15°C° 0 mm 1 mps 756 mmHg 92%
    14:00 -15°C° 0 mm 1 mps 756 mmHg 92%
    15:00 -15°C° 0 mm 1 mps 756 mmHg 92%
    16:00 -16°C° 0 mm 1 mps 756 mmHg 92%
    17:00 -18°C° 0 mm 2 mps 756 mmHg 92%
    18:00 -18°C° 0 mm 2 mps 755 mmHg 92%
    19:00 -18°C° 0 mm 2 mps 755 mmHg 91%
    20:00 -18°C° 0 mm 2 mps 755 mmHg 91%
    21:00 -18°C° 0 mm 2 mps 754 mmHg 89%
    22:00 -18°C° 0 mm 2 mps 754 mmHg 88%
    23:00 -19°C° 0 mm 3 mps 754 mmHg 87%

    26 January, Saturday

    Time Temperature Precipitation Wind Pressure Humidity
    00:00 -19°C° 0 mm 3 mps 753 mmHg 87%
    01:00 -19°C° 0 mm 2 mps 753 mmHg 88%
    02:00 -20°C° 0 mm 2 mps 753 mmHg 89%
    03:00 -21°C° 0 mm 2 mps 752 mmHg 89%
    04:00 -21°C° 0 mm 2 mps 752 mmHg 89%
    05:00 -24°C° 0 mm 3 mps 751 mmHg 89%
    06:00 -24°C° 0 mm 3 mps 751 mmHg 88%
    07:00 -24°C° 0 mm 3 mps 750 mmHg 87%
    08:00 -24°C° 0 mm 3 mps 750 mmHg 86%
    09:00 -23°C° 0 mm 3 mps 749 mmHg 84%
    10:00 -21°C° 0 mm 3 mps 749 mmHg 83%
    11:00 -20°C° 0 mm 4 mps 749 mmHg 81%
    12:00 -19°C° 0 mm 4 mps 748 mmHg 81%
    13:00 -19°C° 0 mm 4 mps 747 mmHg 81%
    14:00 -18°C° 0 mm 4 mps 747 mmHg 81%
    15:00 -18°C° 0 mm 4 mps 746 mmHg 81%
    16:00 -18°C° 0 mm 4 mps 745 mmHg 81%
    17:00 -18°C° 0 mm 4 mps 745 mmHg 81%
    18:00 -18°C° 0 mm 4 mps 744 mmHg 84%
    19:00 -18°C° 0 mm 4 mps 743 mmHg 86%
    20:00 -18°C° 0 mm 5 mps 743 mmHg 88%
    21:00 -18°C° 0.1 mm 5 mps 742 mmHg 89%
    22:00 -17°C° 0.1 mm 5 mps 742 mmHg 89%
    23:00 -17°C° 0.1 mm 5 mps 741 mmHg 90%
    Show more